STARLINK-34480

Last updated on Thu Jul 03 2025 00:02:07 GMT+0000 (Coordinated Universal Time)

1 64427U 25129R 25183.58335648 -.01561123 00000+0 -18532-1 0 9993 2 64427 69.9999 351.5479 0003380 265.6335 34.7505 15.63979263 3686
UTC large
Height (km)
Speed (km/s)
/
Latitude / Longitude
Inclination (degrees)
Orbital Period (minutes)
Azimuth
Elevation
Range (km)
Doppler Factor

Next 0 passes for location: London (51.5072 / 0.1276)

Sorry there are no passes over London.